SPRINT A

Satellite information

Favourite Embed

Satellite Type and Status

PAYLOADIN ORBIT

Key statistics

Satellite SPRINT A at a glance.

Uptime

4374

Days in orbit

Revolutions

≈ 13.6

Per day

Orbit

LEO

Low Earth Orbit

Inclination

29.7

Latest

Satellite identification and parameters

Extended collection of information and parameters for SPRINT A.

Object identification

Identified? True

Debris? False

Object name: SPRINT A

International designator: 2013-049A

Object number (NORAD): 39253

Object ID (CCSDS): 39253

Country: JAPAN (JPN)

Current information (Y/N): Y

RCS size: LARGE

Orbital parameters

Period: 106.234 minutes

Inclination: 29.7191 deg

SMA: 7430.224 km

Apoapsis: 1153.712 km

Periapsis: 950.466 km

RAAN: 233.4679 deg

Eccentricy: 0.01367693

Argument of periapsis: 219.0401 deg

Mean anomaly: 140.023 deg

Mean motion: 13.55501149 rev/day

Mean motion (dot): 0.00000136 rev/day2

B* drag term: 0.000092111447 1/REarth

Two-line elements (TLE)

Creation date: Sept. 4, 2025, 10:13 a.m.

Reference frame: TEME

Reference center: EARTH

Epoch: Sept. 4, 2025, 7:02 a.m. UTC

TLE line 0: 0 SPRINT A

TLE line 1: 1 39253U 13049A 25247.29371839 .00000136 00000-0 92111-4 0 9999

TLE line 2: 2 39253 29.7191 233.4679 0136769 219.0401 140.0230 13.55501149592602

Live tracking on map

Real-time ground track for satellite SPRINT A.

In-orbit conjunctions

There are no conjunctions computed for SPRINT A, at the moment. Check back to stay up to date, as we update our databases every day.

Go to all conjunctions

Associated space launch

Hisaki, also known as the Spectroscopic Planet Observatory for Recognition of Interaction of Atmosphere (SPRINT-A) is a Japanese ultraviolet astronomy satellite operated by the Japan Aerospace Exploration Agency (JAXA). Hisaki carries an extreme ultraviolet spectrometer which will be used to study the composition of the atmospheres and the behavior of the magnetospheres of the planets of the Solar System.

SPRINT A was lifted into orbit during the mission ‘Epsilon | Hisaki (SPRINT-A)’, on board a Epsilon space rocket.

The launch took place on Sept. 14, 2013, 5 a.m. from Mu Center.

For more information about the launch, click the button.

Launch to space Epsilon | Hisaki (SPRINT-A)
Epsilon | Hisaki (SPRINT-A)

Agency: N/A

Status: Launch Successful

Launch date: Sept. 14, 2013, 5 a.m. UTC

Rocket: Epsilon

Launch pad: Mu Center

Location: Uchinoura Space Center, Japan

...

Latest news about this satellite

There are no fresh news available about this satellite. Check back as we update our databases every day.


Newsletter sign-up

Weekly statistics, charts and insights to help you stay on top of the space industry.